Stations météo

réclame
Mon MeteoGroup
Shap, Grande-Bretagne (3225): Température de l'air & dewpoint: 26.11.2020 03:00:00 - 02.12.2020 03:00:00 (GMT)Shap, Grande-Bretagne (3225): Température de l'air -20cm & Température de l'air -100cm: 26.11.2020 03:00:00 - 02.12.2020 03:00:00 (GMT)Shap, Grande-Bretagne (3225): Vitesse du vent & gusts: 26.11.2020 03:00:00 - 02.12.2020 03:00:00 (GMT)Shap, Grande-Bretagne (3225): Direction du vent: 26.11.2020 03:00:00 - 02.12.2020 03:00:00 (GMT)Shap, Grande-Bretagne (3225): reduced air pressure: 26.11.2020 03:00:00 - 02.12.2020 03:00:00 (GMT)Shap, Grande-Bretagne (3225): visibility: 26.11.2020 03:00:00 - 02.12.2020 03:00:00 (GMT)Shap, Grande-Bretagne (3225): Ensoleillement: 26.11.2020 03:00:00 - 02.12.2020 03:00:00 (GMT)Shap, Grande-Bretagne (3225): Quantités de précipitations: 26.11.2020 03:00:00 - 02.12.2020 03:00:00 (GMT)
Date & Time tt [°C] td [°C] tt -20cm [°C] tt -100cm [°C] ff [km/h] ff [knt] fx [km/h] fx [knt] dd ppp [hPa] vv [km] sd [min] rr [mm]
02.12.2020 03:00:00 2,2 1,0 - - 4 2 - - NNE 1021,9 8 0 0,0
02.12.2020 02:00:00 5,2 4,5 - - 15 8 - - WSW 1022,0 10 0 0,0
02.12.2020 01:00:00 4,4 3,7 - - 18 10 - - S 1022,9 13 0 0,0
02.12.2020 00:00:00 3,1 2,7 - - 8 4 - - SSE 1024,2 14 - 0,0
01.12.2020 23:00:00 2,3 1,2 - - 5 3 - - E 1025,2 25 0 0,0
01.12.2020 22:00:00 2,9 2,1 - - 4 2 - - S 1025,5 29 0 0,0
01.12.2020 21:00:00 2,7 1,1 - - 9 5 - - SE 1026,2 40 0 0,0
01.12.2020 20:00:00 4,1 2,0 - - 15 8 - - WSW 1025,9 40 0 0,0
01.12.2020 19:00:00 2,6 0,4 - - 11 6 - - S 1026,4 60 0 0,0
01.12.2020 18:00:00 3,0 0,2 - - 9 5 - - SSE 1026,6 55 0 0,0
01.12.2020 17:00:00 3,9 1,3 - - 9 5 - - SSW 1026,7 65 0 0,0
01.12.2020 16:00:00 2,8 1,4 - - 15 8 - - SE 1027,3 35 0 0,0
01.12.2020 15:00:00 3,4 1,4 - - 13 7 - - SSE 1027,3 50 0 0,0
01.12.2020 14:00:00 3,4 1,0 - - 13 7 - - SE 1027,5 55 12 0,0
01.12.2020 13:00:00 3,2 1,2 - - 4 2 - - SSE 1028,2 50 0 0,0
01.12.2020 12:00:00 2,5 1,5 - - 0 0 - - N 1028,5 50 0 0,0
01.12.2020 11:00:00 2,1 1,2 - - 4 2 - - SE 1028,7 45 6 0,0
01.12.2020 10:00:00 0,9 0,6 - - 2 1 - - S 1028,9 55 6 0,0
01.12.2020 09:00:00 -0,1 -0,3 7,0 8,7 4 2 - - WSW 1029,1 45 0 0,0
01.12.2020 08:00:00 -2,0 -2,2 - - 0 0 - - N 1029,2 50 0 0,0
01.12.2020 07:00:00 -2,9 -3,2 - - 0 0 - - N 1028,8 55 0 0,0
01.12.2020 06:00:00 -3,9 -4,6 - - 0 0 - - N 1028,3 60 0 0,0
01.12.2020 05:00:00 -2,7 -3,2 - - 0 0 - - N 1027,9 60 0 0,0
01.12.2020 04:00:00 -2,9 -3,6 - - 0 0 - - N 1027,8 65 0 0,0
01.12.2020 03:00:00 -2,1 -2,8 - - 0 0 - - N 1027,5 60 0 0,0
01.12.2020 02:00:00 -1,1 -2,0 - - 4 2 - - WNW 1027,2 55 0 0,0
01.12.2020 01:00:00 0,2 -1,0 - - 2 1 - - WNW 1026,6 55 0 0,0
01.12.2020 00:00:00 2,0 -0,3 - - 9 5 - - NW 1026,0 60 - 0,0
30.11.2020 23:00:00 2,4 0,1 - - 13 7 - - NW 1025,4 55 0 0,0
30.11.2020 22:00:00 2,2 -0,1 - - 9 5 - - NNW 1024,7 50 0 0,0
30.11.2020 21:00:00 2,7 0,1 - - 9 5 - - NW 1024,1 45 0 0,0
30.11.2020 20:00:00 3,5 0,4 - - 15 8 - - NNW 1022,9 50 0 0,0
30.11.2020 19:00:00 3,9 0,6 - - 18 10 - - NW 1021,8 50 0 0,0
30.11.2020 18:00:00 4,1 0,9 - - 22 12 - - NNW 1020,7 50 0 0,0
30.11.2020 17:00:00 4,9 1,3 - - 28 15 52 28 NNW 1019,7 55 0 0,0
30.11.2020 16:00:00 6,0 1,5 - - 29 16 52 28 NW 1018,7 60 0 0,0
30.11.2020 15:00:00 7,3 4,1 - - 28 15 46 25 NW 1017,4 75 0 0,0
30.11.2020 14:00:00 9,6 6,4 - - 26 14 - - WNW 1016,5 75 0 0,2
30.11.2020 13:00:00 9,6 6,9 - - 22 12 - - WNW 1016,6 75 0 0,0
30.11.2020 12:00:00 9,5 7,3 - - 18 10 - - W 1017,2 15 0 0,2
30.11.2020 11:00:00 8,3 6,6 - - 22 12 - - WSW 1017,9 4,9 0 0,0
30.11.2020 10:00:00 7,9 5,9 - - 16 9 - - WSW 1018,6 18 0 0,0
30.11.2020 09:00:00 8,1 5,6 7,0 8,7 18 10 - - WSW 1019,2 11 0 0,0
30.11.2020 08:00:00 7,3 5,7 - - 24 13 - - SW 1020,0 23 0 0,2
30.11.2020 07:00:00 6,9 5,2 - - 24 13 - - SW 1020,7 20 0 0,2
30.11.2020 06:00:00 7,2 5,2 - - 16 9 - - WSW 1021,3 23 0 0,0
30.11.2020 05:00:00 7,2 5,3 - - 11 6 - - WSW 1022,0 17 0 0,0
30.11.2020 04:00:00 7,3 5,2 - - 18 10 - - WSW 1022,1 23 0 0,0
30.11.2020 03:00:00 7,5 4,6 - - 9 5 - - S 1022,9 35 0 0,0
30.11.2020 02:00:00 7,3 5,3 - - 13 7 - - SW 1023,7 18 0 0,0
30.11.2020 01:00:00 6,5 5,4 - - 8 4 - - SSW 1024,3 10 0 0,0
30.11.2020 00:00:00 7,1 6,5 - - 11 6 - - S 1025,0 4,9 - 0,0
29.11.2020 23:00:00 7,3 6,5 - - 21 11 - - WSW 1024,9 8 0 0,0
29.11.2020 22:00:00 7,2 6,4 - - 16 9 - - WSW 1025,4 9 0 0,0
29.11.2020 21:00:00 6,8 5,4 - - 13 7 - - WSW 1025,6 19 0 0,0
29.11.2020 20:00:00 7,0 5,9 - - 15 8 - - WSW 1026,0 11 0 0,0
29.11.2020 19:00:00 7,4 5,9 - - 5 3 - - WSW 1026,0 35 0 0,0
29.11.2020 18:00:00 6,7 6,2 - - 2 1 - - S 1025,9 3,9 0 0,0
29.11.2020 17:00:00 7,0 6,4 - - 4 2 - - NNW 1025,9 2,6 0 0,0
29.11.2020 16:00:00 7,2 6,4 - - 4 2 - - NW 1025,6 3,4 0 0,0
29.11.2020 15:00:00 7,6 6,5 - - 4 2 - - W 1025,4 8 0 0,0
29.11.2020 14:00:00 7,7 6,6 - - 5 3 - - WSW 1025,5 12 0 0,0
29.11.2020 13:00:00 7,6 6,4 - - 11 6 - - WSW 1025,8 13 0 0,0
29.11.2020 12:00:00 7,8 6,7 - - 11 6 - - SW 1025,8 16 0 0,0
29.11.2020 11:00:00 7,7 6,7 - - 9 5 - - SSW 1026,1 15 0 0,0
29.11.2020 10:00:00 7,1 6,6 - - 4 2 - - SW 1025,9 8 0 0,0
29.11.2020 09:00:00 7,0 6,5 7,0 8,9 5 3 - - SSW 1026,0 7 0 0,0
29.11.2020 08:00:00 6,9 6,5 - - 8 4 - - SSW 1025,6 5 0 0,0
29.11.2020 07:00:00 6,8 6,5 - - 5 3 - - WSW 1025,2 2,7 0 0,0
29.11.2020 06:00:00 6,8 6,5 - - 8 4 - - SSW 1025,1 1,9 0 0,0
29.11.2020 05:00:00 6,8 6,6 - - 5 3 - - SW 1024,8 3,2 0 0,0
29.11.2020 04:00:00 5,8 5,4 - - 2 1 - - ESE 1024,8 3,5 0 0,0
29.11.2020 03:00:00 5,7 5,4 - - 0 0 - - N 1025,1 4,0 0 0,0
29.11.2020 02:00:00 5,7 5,3 - - 2 1 - - W 1025,0 4,2 0 0,0
29.11.2020 01:00:00 5,7 5,1 - - 0 0 - - N 1024,7 4,8 0 0,0
29.11.2020 00:00:00 6,0 5,3 - - 4 2 - - SW 1024,5 9 - 0,0
28.11.2020 23:00:00 5,7 5,1 - - 4 2 - - SSW 1024,4 6 0 0,0
28.11.2020 22:00:00 5,5 4,8 - - 0 0 - - N 1024,3 8 0 0,0
28.11.2020 21:00:00 5,3 4,5 - - 2 1 - - SW 1024,1 7 0 0,0
28.11.2020 20:00:00 5,2 4,2 - - 5 3 - - WSW 1023,9 7 0 0,0
28.11.2020 19:00:00 4,3 3,7 - - 2 1 - - WNW 1023,7 6 0 0,0
28.11.2020 18:00:00 4,3 3,6 - - 2 1 - - NW 1023,4 7 0 0,0
28.11.2020 17:00:00 3,9 2,8 - - 2 1 - - NNW 1023,1 8 0 0,0
28.11.2020 16:00:00 5,6 3,6 - - 9 5 - - ENE 1022,2 35 0 0,0
28.11.2020 15:00:00 6,0 3,7 - - 9 5 - - E 1021,5 28 0 0,0
28.11.2020 14:00:00 3,1 2,4 - - 4 2 - - NE 1021,3 10 0 0,0
28.11.2020 13:00:00 1,8 1,3 - - 0 0 - - N 1021,6 8 0 0,0
28.11.2020 12:00:00 0,3 -0,1 - - 2 1 - - E 1021,6 9 0 0,0
28.11.2020 11:00:00 -0,8 -1,1 - - 2 1 - - NE 1021,5 12 0 0,0
28.11.2020 10:00:00 -1,7 -2,1 - - 5 3 - - WSW 1021,4 14 0 0,0
28.11.2020 09:00:00 -3,1 -4,0 7,4 8,9 2 1 - - ENE 1021,2 16 0 0,0
28.11.2020 08:00:00 -1,9 -2,5 - - 4 2 - - SSW 1020,2 29 0 0,0
28.11.2020 07:00:00 -1,9 -2,4 - - 2 1 - - E 1019,7 27 0 0,0
28.11.2020 06:00:00 -2,6 -3,7 - - 2 1 - - N 1019,3 17 0 0,0
28.11.2020 05:00:00 -2,2 -3,3 - - 4 2 - - W 1019,2 40 0 0,0
28.11.2020 04:00:00 -2,7 -3,7 - - 5 3 - - S 1018,9 22 0 0,0
28.11.2020 03:00:00 -1,6 -2,9 - - 2 1 - - WSW 1018,7 17 0 0,0
28.11.2020 02:00:00 0,3 -1,6 - - 11 6 - - S 1018,4 24 0 0,0
28.11.2020 01:00:00 1,1 -0,8 - - 13 7 - - SSE 1018,1 23 0 0,0
28.11.2020 00:00:00 1,2 -0,6 - - 13 7 - - SSE 1017,9 28 - 0,0
27.11.2020 23:00:00 1,3 -0,4 - - 13 7 - - SSE 1018,0 45 0 0,0
27.11.2020 22:00:00 2,8 1,2 - - 8 4 - - S 1018,0 40 0 0,0
27.11.2020 21:00:00 3,1 1,6 - - 9 5 - - SSE 1017,8 40 0 0,0
27.11.2020 20:00:00 3,1 1,9 - - 9 5 - - S 1018,1 45 0 0,0
27.11.2020 19:00:00 3,0 2,1 - - 9 5 - - S 1018,2 40 0 0,0
27.11.2020 18:00:00 1,7 0,8 - - 5 3 - - SSW 1018,5 55 0 0,0
27.11.2020 17:00:00 3,6 1,9 - - 5 3 - - SW 1018,1 55 0 0,0
27.11.2020 16:00:00 4,1 2,1 - - 5 3 - - SE 1018,4 35 0 0,0
27.11.2020 15:00:00 4,8 2,4 - - 4 2 - - S 1018,5 55 0 0,0
27.11.2020 14:00:00 5,0 2,0 - - 13 7 - - SW 1018,7 65 0 0,0
27.11.2020 13:00:00 5,4 2,2 - - 11 6 - - SW 1018,9 65 0 0,0
27.11.2020 12:00:00 5,6 2,5 - - 13 7 - - WSW 1019,3 55 0 0,0
27.11.2020 11:00:00 5,4 3,1 - - 11 6 - - SE 1020,1 35 0 0,0
27.11.2020 10:00:00 5,0 2,6 - - 13 7 - - SSW 1020,4 30 0 0,0
27.11.2020 09:00:00 4,7 2,7 7,7 9,0 13 7 - - WSW 1020,6 18 0 0,0
27.11.2020 08:00:00 4,6 2,4 - - 13 7 - - WSW 1020,7 23 0 0,0
27.11.2020 07:00:00 4,3 1,9 - - 5 3 - - S 1020,6 55 0 0,0
27.11.2020 06:00:00 4,4 2,2 - - 4 2 - - S 1020,6 45 0 0,0
27.11.2020 05:00:00 4,7 2,4 - - 2 1 - - W 1020,7 45 0 0,0
27.11.2020 04:00:00 4,8 2,2 - - 11 6 - - SW 1020,8 60 0 0,0
27.11.2020 03:00:00 5,0 2,0 - - 8 4 - - WSW 1021,2 65 0 0,0
27.11.2020 02:00:00 4,9 2,1 - - 4 2 - - WSW 1021,4 65 0 0,0
27.11.2020 01:00:00 5,3 1,8 - - 8 4 - - W 1021,8 65 0 0,0
27.11.2020 00:00:00 4,1 2,5 - - 2 1 - - ENE 1021,8 65 - 0,0
26.11.2020 23:00:00 4,5 2,3 - - 2 1 - - W 1021,9 65 0 0,0
26.11.2020 22:00:00 4,8 2,0 - - 5 3 - - WSW 1021,8 65 0 0,0
26.11.2020 21:00:00 4,7 2,3 - - 2 1 - - W 1021,8 70 0 0,0
26.11.2020 20:00:00 4,3 2,3 - - 4 2 - - W 1021,6 75 0 0,0
26.11.2020 19:00:00 4,0 2,0 - - 5 3 - - W 1021,7 75 0 0,0
26.11.2020 18:00:00 4,8 1,6 - - 5 3 - - WNW 1021,5 70 0 0,0
26.11.2020 17:00:00 4,5 2,4 - - 5 3 - - WNW 1021,3 75 0 0,0
26.11.2020 16:00:00 4,7 2,0 - - 8 4 - - WNW 1020,9 75 0 0,0
26.11.2020 15:00:00 6,6 3,2 - - 4 2 - - N 1020,4 75 0 0,0
26.11.2020 14:00:00 7,0 3,4 - - 5 3 - - NNW 1020,5 75 0 0,0
26.11.2020 13:00:00 6,8 3,0 - - 11 6 - - NNW 1020,8 75 24 0,0
26.11.2020 12:00:00 7,1 3,5 - - 8 4 - - NNW 1020,8 75 6 0,0
26.11.2020 11:00:00 6,6 3,5 - - 5 3 - - NNW 1021,1 75 0 0,0
26.11.2020 10:00:00 5,7 4,3 - - 4 2 - - SSE 1021,0 55 0 0,0
26.11.2020 09:00:00 5,0 4,0 7,9 9,0 5 3 - - W 1020,8 50 0 0,0
26.11.2020 08:00:00 3,2 2,4 - - 4 2 - - S 1020,6 50 0 0,0
26.11.2020 07:00:00 3,4 2,6 - - 4 2 - - S 1020,3 50 0 0,0
26.11.2020 06:00:00 3,7 2,5 - - 4 2 - - WSW 1019,7 35 0 0,0
26.11.2020 05:00:00 4,6 3,9 - - 5 3 - - WSW 1019,5 45 0 0,0
26.11.2020 04:00:00 4,9 2,9 - - 2 1 - - E 1019,2 40 0 0,0
26.11.2020 03:00:00 6,4 4,2 - - 13 7 - - WSW 1018,7 40 0 0,0

tt = Température de l'air
td = dewpoint
tt -20cm = Température de l'air -20cm
tt -100cm = Température de l'air -100cm
ff = Vitesse du vent
fx = gusts
dd = Direction du vent
ppp = reduced air pressure
vv = visibility
sd = Ensoleillement
rr = Quantités de précipitations

stations d'obs. à proximité